map of CUR home
CUR - Airport
Location
City:  Willemstad, Curaçao, Netherlands Antilles
Name:Aeropuerto Hato
ICAO:TNCC
IATA:CUR

Details
Type:Airport (Aerodrome, Airfield)
Use:Public/Civil, International (customs port of entry)
Latitude:12°11'20"N (12.188853)
Longitude:68°57'35"W (-68.959802)
Datum:WGS 1984
Elevation:29 ft (9 m)
Variation:11.26°W (WMM2015 magnetic declination)
-0.09° annual change
Runways:1
Longest:11188 × 197 ft (3410 × 60 m), paved

Time
Time Zone:UTC-4
Local Time:

Weather
METAR:TNCC 240700Z 09006KT 9999 -SHRA FEW016TCU 27/24 Q1013 NOSIG
TAF:TNCC 230945Z 2312/2412 09010KT 9999 SCT018
TEMPO 2312/2318 BKN014

Related Locations
Nearby:
Farthest:JOG: 12125 mi / 19513 km
Yogyakarta [Adisucipto Intl (Jogja Airport)], YO, ID

Find:

   beyond  
but within

Other Information
Maps:
NOTAMs:
Links:
Sources:

  
flag of Netherlands Antilles
flag of Curaçao
  

Sectional Chart

Flight Planning
at skyvector.com

Satellite Image

Google Maps Satellite view

 

Copyright © 2004-2017 Karl L. Swartz. All rights reserved.
The Great Circle Mapper name and logo are trademarks of the Great Circle Mapper.
All other trademarks mentioned herein belong to their respective owners.
Please see credits for attibutions and further copyright information.

  Follow gcmap on Facebook Follow gcmap on Twitter Follow gcmap on Google+ GCmap on LinkedIn

hCard Microformat

Geo Microformat